Location: ????????
(55.6333°N, 37.7000°E)
Time: 00:16:15
(UTC+00:00)

Resurs 1-4 Rocket - Pass Details

Date: 26 May 2026
Orbit: 797 x 813 km, 98.8° (Epoch: 10 June)

Event Time Altitude Azimuth Distance (km) Brightness Sun altitude
Rises 23:35:00 0° 21° (NNE) 3,323 7.5 -8.4°
Reaches altitude 10° 23:37:36 10° 31° (NNE) 2,386 6.3 -8.2°
Maximum altitude 23:42:18 32° 95° (E) 1,337 3.6 -7.9°
Drops below altitude 10° 23:46:59 10° 158° (SSE) 2,367 4.2 -7.5°
Sets 23:49:32 0° 168° (SSE) 3,293 4.9 -7.3°
